Location: Chapel Hill
(35.9134°N, 79.0560°W)
Time: 07:27:04
(UTC-04:00)

ACS3 Solar Sail - Pass Details

Date: 03 May 2025
Orbit: 935 x 1009 km, 97.5° (Epoch: 13 May)

Event Time Altitude Azimuth Distance (km) Brightness Sun altitude
Rises 05:42:45 0° 34° (NE) 3,599 6.0 -8.0°
Reaches altitude 10° 05:46:36 10° 60° (ENE) 2,655 5.9 -7.3°
Maximum altitude 05:49:32 14° 90° (E) 2,384 5.0 -6.8°
Drops below altitude 10° 05:52:28 10° 119° (ESE) 2,663 4.6 -6.2°
Sets 05:56:18 0° 144° (SE) 3,617 4.9 -5.5°
